Reflectivity
-20 -20 -18 -13 -15 8 12 -15 17 10 -20 -20 -20 -20 -20 -20 -20 -20 -20 -20 -20 -20 -20 -20 -20 -20 -20 -20 -20 -20 -20 -20 -17 3 -8 10 9 15 -17 -10 -17 -20 -20 -20
-0 -20 -20 -20 -20 -19 -20 -13 8 3 -18 -20 -20 -20 -20 -20 -20 -20 -20 -20 -20 -20 -20 -20 -3 -20 -20 -20 -20 -20 -20 -20 -20 -20 -8 -18 -2 21 -20 -20 -20 -13 -9 -14
9 -20 -20 -20 -20 -20 -20 -20 -9 1 -17 -20 -20 -20 -20 -20 -20 -20 -20 -20 -20 -20 -20 -20 -20 -20 -20 -20 -20 -20 -20 -20 -20 -20 -20 -1 -16 -2 -20 -20 -20 -20 27 26
11 -6 4 -20 -20 -20 -20 -20 -6 -7 -15 -20 -20 -20 -20 -20 -20 -20 -17 16 -20 -20 -20 -20 -20 -20 -20 -20 -20 -20 -20 -20 -20 -20 -20 -20 -20 -20 -17 -20 -20 -16 15 -6
10 3 -20 -20 -20 -20 -20 -20 -20 -20 -20 -20 -20 -20 -20 -20 -4 -20 -20 -20 -20 -20 -20 -20 -20 -20 -20 -20 -20 -20 -20 -20 -20 -20 -20 -20 -20 -20 -20 -20 -20 -8 -17 12
12 9 -13 -20 -20 -20 -20 -20 -20 -20 -20 -20 -20 -19 -20 -14 -19 -18 -0 -20 -20 -20 -20 -20 -20 -20 -20 -20 -20 -20 -20 -20 -20 -20 -20 -18 -12 -20 -20 -11 11 32 36 35
7 16 -5 -20 -20 -20 -13 -20 -20 -20 -20 -20 -20 -9 -12 -15 -20 -3 -14 -20 -14 -20 -20 -20 -20 -20 -20 6 5 -8 -20 -20 -20 -20 -20 -4 -1 -1 13 34 38 29 28 26
11 12 10 -20 -20 -20 -20 -20 -20 -20 -20 -20 -20 -14 -17 -3 -20 26 37 27 -10 -20 -20 -20 -20 -20 -20 9 9 -18 10 23 -7 0 -7 -18 -20 -20 -20 12 33 6 25 26
-20 -20 -20 -20 -20 -20 -20 -20 -20 -20 -20 -20 -20 -20 -20 -20 -20 34 -12 -4 -20 -20 -20 -20 -20 -20 -20 -17 -20 -5 2 11 21 -20 -20 -20 -20 -3 -20 -20 -8 -7 3 -3
-20 -20 -20 -20 -20 -20 -20 -20 -20 -20 -20 -20 -20 -20 -20 -20 -20 29 23 -1 -11 -20 -20 -20 -20 -20 -20 -20 -20 22 18 12 35 -14 -18 -14 -10 -2 -20 -19 -7 -3 -1 -1
-20 -20 -20 -20 -20 -20 -20 -20 -20 -20 -20 -20 -20 -20 -20 -20 -20 20 20 8 -20 -20 -20 -20 -20 -20 -20 -20 -20 -19 25 18 28 32 6 -8 -20 -20 -20 -14 -19 -19 -11 -7
-20 -20 -20 -20 -20 -20 -20 -20 -20 -20 -20 -20 -6 -20 -20 -20 -20 -18 20 -10 -19 -20 -20 -20 -20 -20 -20 -20 -20 -20 -20 -4 27 13 -3 -4 -12 -15 -19 -13 -5 6 0 -20
-20 -20 -20 -20 -20 -20 -20 -20 -20 -20 -20 -20 -20 -20 -12 18 -20 -20 -14 9 -6 -20 -20 -20 -20 -20 -20 -20 -20 -20 -20 -16 -20 0 8 -6 -13 -18 -20 2 6 -14 -12 -15
-20 -20 -20 -20 -20 -20 -20 -20 -20 -20 -20 3 10 -11 5 1 -20 -20 -20 -20 -20 -20 -20 -20 -20 -20 -6 -20 -17 7 6 -1 -19 -20 10 -2 3 16 -3 -5 -19 -20 -14 -11
-20 -20 -13 6 -8 -7 -20 -12 4 5 7 -1 2 8 1 -10 -8 -20 -20 -20 -20 -20 -20 -20 -20 -20 -20 -20 -20 -20 -20 -20 -16 -20 -15 7 3 23 20 7 3 -1 14 8
-19 -7 -20 -18 -9 -6 -9 -9 -7 -3 -17 -19 -2 3 -16 -20 -20 -1 -20 -20 -20 -20 -14 -18 -20 -20 -20 -20 -20 -19 -14 2 -14 -20 -17 -2 12 12 24 23 19 16 1 1
-4 -20 -20 -20 -19 -13 -19 -19 -1 -4 -5 -2 -16 -5 -1 -20 -20 -20 -18 -20 -20 -20 -8 16 5 -20 -20 -19 -17 -3 -4 -11 8 3 -13 -10 7 17 15 21 22 26 20 21
12 -20 -20 -11 -20 -20 -20 1 -20 0 -3 -5 -20 -20 -20 -20 0 -9 -20 -14 -11 -20 -20 -15 -16 -9 -20 -15 -15 -4 0 -2 -3 0 -10 -2 -7 14 17 15 19 23 25 20
11 -2 -20 -20 -11 -3 -8 -20 -20 -16 -20 -14 -4 -20 -17 -6 3 -17 -12 -9 -10 -10 1 1 -20 -5 -3 -20 -20 -7 1 -0 -5 -20 -12 -6 -4 5 5 14 19 24 22 24
17 6 7 -20 -20 -20 -17 -20 -20 -20 -20 -17 -20 1 -14 -17 1 -2 4 3 11 1 5 -17 -20 -20 -20 -9 -0 2 0 0 1 1 5 -20 -1 4 5 6 22 18 20 24
-19 -20 -8 1 -1 -20 -20 -4 -20 -20 -20 -20 -3 -20 -20 -19 -20 -18 -4 -7 -2 1 -8 -16 -6 -20 -20 -20 -4 -4 -18 0 -20 -18 -2 -4 5 6 3 4 4 3 8 17
-20 -20 -5 -12 -20 -20 -2 -20 -20 -20 -20 -20 -20 -20 -20 -20 -20 -20 -12 -20 -4 -12 3 -2 -20 -20 -20 -20 -15 -3 -20 -1 -20 -20 -20 -16 -2 -12 -1 2 3 3 1 4
-19 -20 -20 -10 -5 -5 -16 -20 -20 -20 -20 -20 -20 -9 -5 -9 -5 -9 -19 -14 -20 -20 -20 -20 -20 -16 -19 -2 -7 -5 -10 -8 -10 -4 -8 -2 -2 -2 -2 -2 -3 -1 -2 -2
-8 -7 -2 -4 3 2 2 5 -20 -20 -20 -20 -5 2 5 -1 -7 -20 -20 -20 -20 -20 -20 -20 -17 -20 -20 -3 -2 -1 -1 -0 -1 1 -0 -3 0 -2 -1 -1 -2 -1 -2 -3
-20 -20 -14 5 4 -20 -13 8 -17 -20 -18 -3 -4 -11 -4 -0 -9 -7 -20 -20 -20 -20 -20 -17 -18 -20 -4 -2 -2 -3 -1 -1 0 -0 -0 -1 -2 -2 -2 -4 -3 -1 -1 -2
-13 -20 -20 -6 3 2 9 10 2 -12 -20 -3 -1 -2 -3 -12 -8 -9 -17 -20 -20 -20 -20 -6 -3 -14 -2 -9 -5 -13 -10 -9 -7 -12 -3 -3 -3 -3 -2 -3 -3 -2 -2 -2
-20 -20 -12 -20 -16 3 13 9 8 6 -5 1 -19 -1 -14 -14 -14 -11 -9 -10 -11 -14 -14 -6 -17 -20 -16 -4 -7 -9 -10 -10 -16 -5 -3 -2 -2 -3 -3 -3 -3 -2 -3 -5
Wind_Speed
18 15 15 18 20 20 20 20 19 23 27 25 23 23 21 19 19 20 20 17 13 9 6 5 3 5 5 6 7 7 9 12 14 14 13 13 13 15 15 15 16 14 13 12
12 17 18 23 22 21 23 24 23 25 30 24 23 18 17 18 20 21 18 15 10 7 6 5 5 6 7 7 6 6 8 10 10 11 13 14 14 16 16 16 16 16 14 16
6 9 10 16 21 25 23 21 20 21 20 15 15 16 17 19 19 18 16 12 7 6 7 7 9 9 11 11 9 8 9 9 8 9 11 11 13 14 15 15 15 14 14 13
4 6 13 4 3 6 13 16 16 17 17 10 12 14 17 15 14 13 13 10 8 6 7 8 10 12 12 11 10 8 8 7 6 7 9 11 11 11 11 13 14 14 13 13
5 10 15 16 16 17 13 12 2 5 6 10 12 16 15 1 13 16 17 15 11 7 7 9 10 10 11 11 9 6 6 5 6 7 8 8 10 10 9 10 12 13 12 12
8 8 11 7 5 3 0 13 9 4 6 9 9 9 10 16 20 21 18 16 12 8 7 8 7 9 10 8 8 7 4 3 4 5 6 9 8 9 8 9 9 8 8 10
14 12 10 6 6 5 10 2 2 7 10 12 11 7 11 11 13 16 20 22 14 9 8 7 6 7 7 5 4 6 5 2 4 6 6 8 9 8 10 10 9 9 10 9
12 14 18 7 8 10 5 6 8 12 13 12 12 12 12 13 13 15 17 20 13 9 7 5 6 5 3 5 4 3 3 1 5 6 6 7 10 9 9 9 10 9 9 8
7 6 6 6 4 11 13 14 16 19 16 13 15 16 15 14 10 15 22 15 11 10 7 4 3 2 1 3 2 3 2 2 1 5 4 7 9 10 8 9 8 8 8 8
5 12 16 16 15 14 14 16 18 13 14 16 17 17 17 15 10 10 21 15 12 10 8 5 4 4 6 5 2 4 3 3 3 5 5 3 5 6 7 7 7 8 8 8
17 19 19 20 16 13 13 14 16 18 18 16 16 17 16 15 13 13 17 17 11 10 6 6 6 5 5 6 3 3 4 4 4 4 6 5 4 5 6 6 8 10 8 8
13 15 13 15 13 14 17 17 18 18 17 16 14 16 16 15 14 14 16 12 11 9 7 6 7 6 6 6 6 4 4 4 4 4 5 4 4 4 4 5 8 7 9 8
14 15 16 18 17 18 19 17 15 13 14 15 15 16 16 14 14 13 12 12 10 6 2 2 3 4 6 5 5 4 4 4 4 4 4 5 5 5 5 3 8 9 11 11
15 16 16 16 16 15 16 15 14 13 13 12 10 12 13 13 14 11 7 2 3 5 5 5 5 5 3 4 4 3 3 3 4 4 4 4 5 5 4 6 6 6 8 9
12 11 13 14 16 16 14 10 12 12 11 7 6 7 9 11 11 5 2 3 3 3 4 3 5 5 5 5 5 4 3 2 2 2 3 3 4 4 4 5 5 5 5 7
9 2 5 7 9 8 7 7 7 7 7 8 8 7 9 8 7 2 1 2 4 3 4 4 4 3 2 3 4 3 2 3 2 2 2 3 3 4 4 5 5 5 6 8
4 3 6 7 8 8 8 7 7 8 9 9 9 9 10 8 5 3 2 3 4 4 4 4 3 3 3 3 3 2 2 2 2 2 1 2 2 3 3 4 4 5 4 5
3 2 4 6 7 8 9 8 8 9 9 10 10 8 7 6 6 4 4 4 5 5 4 4 2 2 3 3 3 3 3 3 3 2 2 2 1 2 2 3 3 3 3 4
9 7 5 5 7 7 8 8 8 9 9 8 8 8 7 5 2 4 4 4 4 5 3 3 4 4 5 4 3 3 3 3 3 4 3 3 3 3 3 3 3 3 3 4
6 8 7 6 6 7 8 7 8 7 6 8 8 6 4 3 4 5 5 5 6 4 3 4 4 5 5 4 1 5 6 6 6 5 5 5 6 5 5 6 5 4 4 4
5 7 7 6 6 6 5 5 7 7 6 6 7 3 2 3 5 5 5 4 4 4 4 3 4 4 4 5 5 6 7 6 6 6 6 6 5 6 6 6 6 6 5 5
6 7 7 7 8 7 5 5 6 6 6 5 2 2 4 5 6 6 7 5 4 3 4 4 5 7 6 6 6 7 7 7 7 6 6 6 6 6 6 6 7 6 6 6
8 8 9 7 8 10 8 7 6 5 5 3 3 4 4 3 4 5 5 5 5 7 6 7 7 9 10 7 7 8 8 8 7 7 7 7 7 7 7 7 7 7 7 7
9 10 10 10 8 10 10 7 5 4 4 2 2 2 5 5 5 6 8 9 10 10 9 8 9 12 11 7 8 8 8 8 7 7 7 9 7 7 7 7 7 7 7 8
9 10 10 9 10 8 9 7 5 4 4 4 5 4 4 3 3 6 7 8 10 10 9 11 12 13 9 8 8 8 8 8 7 7 8 7 7 7 7 7 8 7 7 7
9 8 9 10 10 9 7 5 6 5 5 5 4 4 5 6 7 7 7 9 8 10 8 7 7 8 9 9 9 9 8 8 8 8 8 8 8 7 7 7 7 7 7 7
8 9 8 9 8 8 7 6 7 7 7 6 6 5 6 7 7 8 9 7 7 8 8 8 8 9 8 8 9 9 9 8 9 8 7 7 7 7 7 7 7 7 7 7
Wind_Direction
261 269 262 251 248 248 256 257 246 263 259 278 284 297 298 296 297 304 303 297 302 291 299 303 285 275 268 269 256 245 239 233 237 228 219 200 192 205 195 177 171 172 161 160
251 255 258 260 256 256 251 253 255 259 267 276 287 288 295 295 297 303 301 296 286 276 304 317 339 326 317 302 284 258 249 248 245 232 221 209 193 198 189 179 171 164 164 162
243 251 279 270 242 240 244 245 243 252 265 294 299 296 300 313 303 304 304 305 268 282 304 333 330 322 311 310 302 283 277 270 254 245 232 218 206 196 185 182 166 160 158 166
246 248 253 284 165 213 231 245 244 262 277 307 297 307 311 305 310 319 335 317 286 273 312 327 324 319 312 305 295 281 279 280 267 232 217 208 201 189 183 176 172 166 164 162
231 232 268 259 248 245 234 255 175 256 283 294 304 309 286 15 347 324 319 305 285 284 300 312 322 330 320 309 293 275 279 273 254 224 209 188 201 189 166 168 170 168 153 147
211 246 253 69 131 104 258 266 144 278 304 307 327 297 318 335 317 308 311 305 281 289 297 297 322 325 326 324 314 313 311 254 206 213 183 190 184 174 156 149 141 136 136 151
228 242 264 276 134 176 232 338 3 325 312 301 283 279 284 306 318 315 308 306 285 267 273 306 330 333 342 339 308 320 314 227 173 190 180 182 163 154 152 145 143 152 150 159
230 244 256 114 166 226 0 297 305 318 308 302 284 280 296 290 319 317 283 287 283 251 267 299 322 340 332 322 325 335 317 241 176 170 162 161 160 157 154 144 151 151 151 158
218 233 117 166 258 277 281 272 285 305 297 294 291 292 291 287 306 316 299 300 293 266 269 258 313 340 347 36 28 59 309 74 95 140 167 164 165 161 158 159 159 158 159 165
265 252 268 273 283 279 276 283 292 281 288 292 286 290 292 287 278 310 288 292 295 258 241 235 204 167 112 107 57 92 176 170 157 135 128 143 155 162 159 161 160 162 166 171
250 260 272 273 271 275 274 284 287 289 286 287 288 290 292 287 273 267 279 287 286 250 235 220 197 178 151 141 150 213 181 175 171 175 177 154 159 169 170 177 175 169 179 170
254 263 269 277 289 295 289 288 289 286 285 286 287 288 293 284 280 268 275 280 272 249 226 212 208 201 190 173 163 212 209 185 172 172 176 173 161 146 140 159 172 161 153 168
267 282 284 289 285 286 284 285 286 280 284 297 294 291 289 290 292 288 272 262 237 217 192 217 250 185 167 172 163 174 187 195 177 187 177 170 175 177 171 147 178 176 176 171
268 278 278 277 283 282 286 294 294 289 282 304 335 321 311 302 297 289 273 226 196 163 144 165 163 144 141 140 110 125 127 143 182 181 185 170 179 185 171 173 176 175 190 182
278 287 325 320 303 292 290 301 293 293 317 312 314 307 322 317 315 336 35 151 139 100 84 117 116 115 149 152 152 161 178 152 166 169 178 188 174 173 180 177 184 172 152 175
314 122 334 347 344 355 343 322 306 310 311 310 308 313 321 314 305 291 249 223 216 150 88 86 89 57 116 152 136 137 150 139 150 151 167 192 194 191 189 193 191 179 181 184
346 349 338 333 334 330 329 323 313 307 306 303 311 311 305 295 266 241 169 112 105 111 104 94 62 20 49 81 128 141 142 136 132 136 168 191 202 203 197 189 190 191 189 172
309 290 305 312 328 331 324 315 309 308 309 312 310 300 280 259 253 215 184 152 127 103 84 75 69 78 71 71 108 129 144 137 137 134 150 163 173 182 180 179 175 170 145 151
308 312 317 305 311 312 315 310 312 312 306 311 310 304 294 282 206 145 153 165 147 135 101 109 98 95 81 66 88 109 117 117 118 104 91 106 109 95 100 109 112 119 130 145
347 345 343 335 333 313 308 302 298 307 309 323 316 316 347 33 107 123 107 79 41 59 98 108 108 94 90 85 145 110 104 100 94 88 80 88 83 81 83 77 87 94 101 105
333 320 321 310 313 299 267 278 295 303 322 323 318 333 57 96 112 122 134 111 63 68 75 95 102 96 87 92 86 90 91 89 85 83 79 81 77 74 72 69 68 66 68 71
320 323 310 296 307 298 284 283 288 292 301 313 307 166 138 124 117 87 48 88 98 76 87 77 68 61 83 83 79 78 78 81 84 85 84 79 78 80 72 66 66 63 61 59
316 314 313 309 310 315 303 290 275 274 277 275 243 201 192 148 145 149 129 75 88 78 78 64 69 76 74 73 76 76 76 79 79 76 74 72 71 73 71 64 63 57 51 51
321 317 312 305 305 301 294 291 261 268 250 235 181 182 169 142 99 80 91 88 87 80 70 67 70 75 81 78 77 76 74 74 72 72 74 68 65 62 59 57 59 55 53 49
316 308 297 293 297 302 300 284 249 230 202 162 128 105 71 52 118 115 103 98 97 94 86 70 72 75 75 76 77 75 70 60 59 66 64 63 61 61 61 60 52 49 53 51
313 311 312 303 293 293 289 271 242 216 199 178 146 125 105 99 104 107 99 100 95 92 83 70 71 76 77 77 76 72 69 68 64 62 62 62 63 61 60 59 58 53 51 52
302 308 313 311 307 301 275 258 239 208 194 177 149 135 122 112 105 106 105 100 94 90 86 83 76 73 80 79 78 78 77 70 53 65 64 65 60 60 56 55 53 57 57 52